Regional Weather Roundup
Issued by NWS Lake Charles, LA

Home | Current Version | Previous Version | Text Only | Print | Product List | Glossary On
Versions: 1 2 3 4 5 6 7 8 9 10 11 12 13 14 15 16 17 18 19 20 21 22 23 24 25 26 27 28 29 30 31 32 33 34 35 36 37 38 39 40 41 42 43 44 45 46 47 48 49 50
000
ASUS44 KLCH 041610
RWRLCH
REGIONAL WEATHER ROUNDUP
NATIONAL WEATHER SERVICE LAKE CHARLES LA
1000 AM CST SUN DEC 04 2016

Note: "fair" indicates few or no clouds below 12,000 feet with no
significant weather and/or obstructions to visibility.


ACROSS SOUTHEAST TEXAS

CITY           SKY/WX    TMP DP  RH WIND       PRES   REMARKS
BEAUMONT       LGT RAIN  53  51  93 NE8       29.97F
BEAUMONT CITY  DRIZZLE   53  51  94 NE8       29.97F
ORANGE         LGT RAIN N/A N/A N/A NE3       30.00R
JASPER         LGT RAIN  52  51  96 E3        30.00S
$$

ACROSS CENTRAL LOUISIANA

CITY           SKY/WX    TMP DP  RH WIND       PRES   REMARKS
LEESVILLE      LGT RAIN  50  48  93 VRB6      29.98R FOG
FULLERTON      LGT RAIN  50  49  96 VRB3      29.97R
ALEXANDRIA INT LGT RAIN  49  48  97 NW6       30.00R
ESLER FIELD    LGT RAIN  49  49 100 NW5       30.00R
DERIDDER       RAIN      51  49  95 CALM      30.01R
OAKDALE        DRIZZLE   51  50  97 N3        30.00R
OPELOUSAS      CLOUDY    51  50  97 NW10      30.00R
$$

ACROSS SOUTHWEST AND SOUTH CENTRAL LOUISIANA

CITY           SKY/WX    TMP DP  RH WIND       PRES   REMARKS
SULPHUR        RAIN      54  53  97 N3        30.00R
LAKE CHARLES   RAIN      53  53 100 NE6       29.99R FOG
CHENNAULT INT  NOT AVBL
CAMERON PHI    PTSUNNY   54  52  94 N10G17    29.98R FOG
DEQUINCY       LGT RAIN  51  50  99 N5        30.00R
JENNINGS       RAIN      52  52 100 N9        30.00R
LAFAYETTE      CLOUDY    57  56  96 NW16      29.97R
NEW IBERIA     LGT RAIN  63  60  90 NW10      29.94R
ABBEVILLE      RAIN      57  57 100 NW15G21   29.98R
PATTERSON      LGT RAIN N/A N/A N/A CALM      29.93R
SALT POINT     NOT AVBL
$$

SELECTED SITES ACROSS THE REGION

CITY           SKY/WX    TMP DP  RH WIND       PRES   REMARKS
HOUSTON BUSH   LGT RAIN  52  50  93 NW6       30.02R
HOUSTON HOBBY  RAIN      53  52  96 N9        30.01R
GALVESTON      RAIN      56  55  97 NE10      29.95R FOG
COLLEGE STAT   LGT RAIN  51  50  96 N12       30.03R FOG
CONROE         LGT RAIN  50  49  96 N6        29.99S
HUNTSVILLE     LGT RAIN  50  48  93 N7        30.01R FOG
LUFKIN         LGT RAIN  49  48  97 CALM      30.00R
SHREVEPORT     CLOUDY    49  48  97 NW6       30.04R
MONROE         CLOUDY    49  47  93 N7        30.01R
NATCHEZ MS     CLOUDY    48  46  93 N9        29.98R
BATON ROUGE    CLOUDY    62  61  96 E5        29.92R FOG
N.O. INTL ARPT CLOUDY    64  64 100 N3        29.93S
SLIDELL        CLOUDY    69  67  93 CALM      29.92S
$$

MARINE REPORTS

STATION/POSITION TIME  SKY/WX   TEMP    WIND        PRES    VSBY
                                AIR SEA DIR/SP/G
                 (UTC)          (F)     (DEG/KT/KT) (MB)    (MI)
BUOY 30 S HIGH I 1550            58 68   20/ 17/ 19 1014.0R
WVE H/P(F/S)=  3/ 7

SEA RIM ST PARK  1600            53      30/  9/ 12 1015.4R
PORT ARTHUR      1548               61   40/  6/  8 1015.2R
SABINE PASS N    1548            54 61   10/  9/ 11 1016.4R
TEXAS POINT      NOT AVBL
CALCASIEU PASS   1548            53 60   10/ 13/ 18   N/A
LK CHARLES BEACH 1548            52 62              1016.0R
MARSH ISLAND     1500            65                   N/A
FRESH WATER LOCK 1548            62 61  290/ 11/ 25 1014.4R
AMERADA PASS     1548            65 62  170/  1/  3 1013.4R
$$



USA.gov is the U.S. government's official web portal to all federal, state and local government web resources and services.